sat.trackr.live / text

‹ back to catalog

STARLINK-5720

NORAD 55619 · 2023-020BC

PAYLOAD ACTIVE UNKNOWN

§ Identity

Operator
Country
US
Launch date
2023-02-12
Launch site
AFETR
Launch vehicle
Mass (kg)
RCS (m²)

Purposes: comms

External: N2YO · Heavens-Above · Gunter

§ Orbital elements

Epoch: 2026-09-20T21:21:42.247584Z

Period
94.27 min
Inclination
43.0029°
Eccentricity
0.0001004
Mean motion
15.27574455 rev/d
Perigee alt
482.4 km
Apogee alt
483.8 km
Semi-major
6,861.2 km
B*
3.0969e-6
RAAN
331.7552°
Arg perigee
269.8026°
Mean anomaly
90.2711°
Rev number
19,888

§ Raw data

STARLINK-57201 55619U 23020BC  26263.89007231 -.00000177  00000+0  30969-5 0  99992 55619  43.0029 331.7552 0001004 269.8026  90.2711 15.27574455198889

JSON: /api/v1/satellites/55619 · /tle

For live sub-satellite position, see the globe view (requires WebGL).

§ Visibility from observer

Set your observer location to see the next 7 days of passes ≥ 10°. The values pass through the URL so the page stays shareable.

No JS? Fill the form by hand. The geolocation button needs JavaScript.